Location: Unspecified
(54.1780°N, 0.0000°E)
Time: 04:51:07
(UTC+00:00)

Explorer 7 - Pass Details

Date: 16 August 2020
Orbit: 484 x 679 km, 50.3° (Epoch: 26 September)

Event Time Altitude Azimuth Distance (km) Brightness Sun altitude
Rises 22:28:46 0° 275° (W) 2,613 10.7 -19.5°
Reaches altitude 10° 22:31:19 10° 260° (W) 1,702 9.5 -19.6°
Enters shadow 22:33:11 19° 234° (SW) 1,223 8.4 -19.8°
